Weather History for Walnut Ridge, AR

Change the Weather History Date:

Saturday, April 6, 2013

  Actual Average Record
Temperature  
Mean Temperature 56 °F -  
Max Temperature 69 °F 65 °F 77 °F (2006)
Min Temperature 44 °F 46 °F 35 °F (2007)
Degree Days  
Heating Degree Days 8    
Growing Degree Days 6 (Base 50)    
Moisture  
Dew Point 44 °F    
Average Humidity 63    
Maximum Humidity 87    
Minimum Humidity 35    
Precipitation  
Precipitation 0.00 in - - ()
Sea Level Pressure  
Sea Level Pressure 29.99 in    
Wind  
Wind Speed 11 mph (South)    
Max Wind Speed 28 mph    
Max Gust Speed 34 mph    
Visibility 10 miles    
Events      
Averages and records for this station are not official NWS values.
T = Trace of Precipitation, MM = Missing Value Source: NWS Daily Summary

Daily Weather History Graph

Daily Weather History Graph

Search for Another Location

Airport:

Trip Planner

Search our weather history database for the weather conditions in past years. The results will help you decide how hot, cold, wet, or windy it might be!

Date:

Astronomy

Apr. 06, 2013 Rise Set
Actual Time 6:42 AM CDT 7:30 PM CDT
Civil Twilight 6:16 AM CDT 7:56 PM CDT
Nautical Twilight 5:45 AM CDT 8:27 PM CDT
Astronomical Twilight 5:14 AM CDT 8:58 PM CDT
Moon 4:19 AM CDT (4/6) 4:04 PM CDT (4/6)
Length of Visible Light 13h 39m
Length of Day
12h 47m
Waning Crescent, 15% of the Moon is Illuminated
Apr 6
Waning Crescent
Apr 10
New
Apr 18
First Quarter
Apr 25
Full
May 2
Last Quarter

Hourly Weather History & Observations

Time (CDT) Temp. Windchill Dew Point Humidity Pressure Visibility Wind Dir Wind Speed Gust Speed Precip Events Conditions
12:15 AM 48.2 °F - 42.8 °F 82% 30.08 in 10.0 mi South 8.1 mph - N/A   Clear
12:35 AM 48.2 °F - 42.8 °F 82% 30.08 in 10.0 mi SSE 6.9 mph - N/A   Clear
12:55 AM 48.2 °F - 42.8 °F 82% 30.07 in 10.0 mi South 8.1 mph - N/A   Clear
1:15 AM 46.4 °F 42.4 °F 42.8 °F 87% 30.08 in 10.0 mi South 8.1 mph - N/A   Clear
1:35 AM 48.2 °F - 42.8 °F 82% 30.08 in 10.0 mi South 8.1 mph - N/A   Clear
1:55 AM 46.4 °F 42.4 °F 41.0 °F 81% 30.06 in 10.0 mi SSE 8.1 mph - N/A   Clear
2:15 AM 46.4 °F 42.4 °F 41.0 °F 81% 30.06 in 10.0 mi South 8.1 mph - N/A   Clear
2:35 AM 46.4 °F 45.2 °F 41.0 °F 81% 30.06 in 10.0 mi South 3.5 mph - N/A   Clear
2:55 AM 46.4 °F 43.5 °F 41.0 °F 81% 30.05 in 10.0 mi SSE 5.8 mph - N/A   Clear
3:15 AM 46.4 °F 44.3 °F 41.0 °F 81% 30.05 in 10.0 mi South 4.6 mph - N/A   Clear
3:35 AM 46.4 °F 44.3 °F 39.2 °F 76% 30.04 in 10.0 mi ESE 4.6 mph - N/A   Clear
3:55 AM 46.4 °F 44.3 °F 41.0 °F 81% 30.04 in 10.0 mi South 4.6 mph - N/A   Clear
4:15 AM 46.4 °F 43.5 °F 39.2 °F 76% 30.04 in 10.0 mi SSW 5.8 mph - N/A   Clear
4:35 AM 44.6 °F 42.2 °F 39.2 °F 81% 30.03 in 10.0 mi SSE 4.6 mph - N/A   Clear
4:55 AM 44.6 °F 42.2 °F 39.2 °F 81% 30.04 in 10.0 mi South 4.6 mph - N/A   Clear
5:15 AM 44.6 °F 43.1 °F 39.2 °F 81% 30.04 in 10.0 mi SSE 3.5 mph - N/A   Clear
5:35 AM 44.6 °F 41.4 °F 39.2 °F 81% 30.04 in 10.0 mi SSE 5.8 mph - N/A   Clear
5:55 AM 44.6 °F 41.4 °F 39.2 °F 81% 30.04 in 10.0 mi SSE 5.8 mph - N/A   Clear
6:15 AM 44.6 °F 40.7 °F 39.2 °F 81% 30.04 in 10.0 mi SSE 6.9 mph - N/A   Clear
6:35 AM 44.6 °F 40.7 °F 39.2 °F 81% 30.04 in 10.0 mi SSE 6.9 mph - N/A   Clear
6:55 AM 44.6 °F 40.7 °F 39.2 °F 81% 30.05 in 10.0 mi SSE 6.9 mph - N/A   Clear
7:15 AM 44.6 °F 41.4 °F 39.2 °F 81% 30.06 in 10.0 mi South 5.8 mph - N/A   Clear
7:35 AM 46.4 °F 45.2 °F 39.2 °F 76% 30.06 in 10.0 mi South 3.5 mph - N/A   Clear
7:55 AM 48.2 °F - 42.8 °F 82% 30.07 in 10.0 mi South 8.1 mph - N/A   Clear
8:15 AM 50.0 °F - 42.8 °F 76% 30.07 in 10.0 mi South 10.4 mph - N/A   Clear
8:35 AM 50.0 °F - 42.8 °F 76% 30.07 in 10.0 mi South 8.1 mph - N/A   Clear
8:55 AM 51.8 °F - 42.8 °F 71% 30.07 in 10.0 mi South 11.5 mph - N/A   Clear
9:15 AM 53.6 °F - 42.8 °F 67% 30.07 in 10.0 mi South 13.8 mph - N/A   Clear
9:35 AM 55.4 °F - 44.6 °F 67% 30.07 in 10.0 mi South 16.1 mph - N/A   Clear
9:55 AM 57.2 °F - 44.6 °F 63% 30.07 in 10.0 mi South 15.0 mph - N/A   Clear
10:15 AM 59.0 °F - 44.6 °F 59% 30.07 in 10.0 mi South 18.4 mph - N/A   Clear
10:35 AM 60.8 °F - 44.6 °F 55% 30.07 in 10.0 mi South 18.4 mph - N/A   Clear
10:55 AM 62.6 °F - 44.6 °F 52% 30.06 in 10.0 mi South 18.4 mph 25.3 mph N/A   Clear
11:15 AM 62.6 °F - 44.6 °F 52% 30.06 in 10.0 mi South 18.4 mph 24.2 mph N/A   Clear
11:35 AM 64.4 °F - 44.6 °F 49% 30.06 in 10.0 mi South 20.7 mph 26.5 mph N/A   Clear
11:55 AM 62.6 °F - 44.6 °F 52% 30.06 in 10.0 mi South 21.9 mph - N/A   Clear
12:15 PM 64.4 °F - 44.6 °F 49% 30.05 in 10.0 mi South 19.6 mph 24.2 mph N/A   Clear
12:35 PM 66.2 °F - 46.4 °F 49% 30.04 in 10.0 mi South 19.6 mph 25.3 mph N/A   Clear
12:55 PM 64.4 °F - 44.6 °F 49% 30.03 in 10.0 mi South 17.3 mph - N/A   Clear
1:15 PM 66.2 °F - 46.4 °F 49% 30.01 in 10.0 mi South 21.9 mph 29.9 mph N/A   Clear
1:35 PM 68.0 °F - 46.4 °F 46% 30.00 in 10.0 mi South 19.6 mph 26.5 mph N/A   Clear
1:55 PM 68.0 °F - 46.4 °F 46% 29.98 in 10.0 mi South 23.0 mph 28.8 mph N/A   Clear
2:15 PM 69.8 °F - 46.4 °F 43% 29.96 in 10.0 mi South 26.5 mph 29.9 mph N/A   Clear
2:35 PM 69.8 °F - 46.4 °F 43% 29.95 in 10.0 mi South 24.2 mph 31.1 mph N/A   Clear
2:55 PM 69.8 °F - 46.4 °F 43% 29.94 in 10.0 mi South 23.0 mph 27.6 mph N/A   Clear
3:15 PM 69.8 °F - 44.6 °F 40% 29.93 in 10.0 mi South 23.0 mph 26.5 mph N/A   Clear
3:35 PM 69.8 °F - 44.6 °F 40% 29.92 in 10.0 mi South 23.0 mph 28.8 mph N/A   Clear
3:55 PM 69.8 °F - 42.8 °F 38% 29.91 in 10.0 mi South 26.5 mph - N/A   Clear
4:15 PM 69.8 °F - 42.8 °F 38% 29.90 in 10.0 mi South 20.7 mph 29.9 mph N/A   Clear
4:35 PM 69.8 °F - 42.8 °F 38% 29.90 in 10.0 mi South 27.6 mph 34.5 mph N/A   Clear
4:55 PM 69.8 °F - 41.0 °F 35% 29.89 in 10.0 mi South 25.3 mph 31.1 mph N/A   Clear
5:15 PM 69.8 °F - 42.8 °F 38% 29.89 in 10.0 mi South 24.2 mph 31.1 mph N/A   Clear
5:35 PM 69.8 °F - 42.8 °F 38% 29.89 in 10.0 mi South 21.9 mph 31.1 mph N/A   Clear
5:55 PM 69.8 °F - 42.8 °F 38% 29.89 in 10.0 mi South 21.9 mph 29.9 mph N/A   Clear
6:15 PM 68.0 °F - 46.4 °F 46% 29.89 in 10.0 mi South 16.1 mph - N/A   Clear
6:35 PM 66.2 °F - 46.4 °F 49% 29.89 in 10.0 mi South 16.1 mph - N/A   Clear
6:55 PM 66.2 °F - 44.6 °F 46% 29.89 in 10.0 mi South 18.4 mph - N/A   Clear
7:15 PM 64.4 °F - 44.6 °F 49% 29.90 in 10.0 mi South 16.1 mph - N/A   Clear
7:35 PM 62.6 °F - 46.4 °F 55% 29.90 in 10.0 mi South 13.8 mph - N/A   Clear
7:55 PM 60.8 °F - 48.2 °F 63% 29.90 in 10.0 mi South 12.7 mph - N/A   Clear
8:15 PM 60.8 °F - 46.4 °F 59% 29.90 in 10.0 mi South 13.8 mph - N/A   Clear
8:35 PM 60.8 °F - 46.4 °F 59% 29.91 in 10.0 mi South 12.7 mph - N/A   Clear
8:55 PM 57.2 °F - 48.2 °F 72% 29.90 in 10.0 mi South 13.8 mph - N/A   Clear
9:15 PM 59.0 °F - 48.2 °F 67% 29.91 in 10.0 mi South 11.5 mph - N/A   Clear
9:35 PM 57.2 °F - 48.2 °F 72% 29.92 in 10.0 mi South 12.7 mph - N/A   Clear
9:55 PM 59.0 °F - 48.2 °F 67% 29.92 in 10.0 mi South 16.1 mph - N/A   Clear
10:15 PM 59.0 °F - 48.2 °F 67% 29.92 in 10.0 mi South 13.8 mph - N/A   Clear
10:35 PM 59.0 °F - 48.2 °F 67% 29.92 in 10.0 mi South 15.0 mph - N/A   Clear
10:55 PM 57.2 °F - 48.2 °F 72% 29.92 in 10.0 mi South 15.0 mph - N/A   Clear
11:15 PM 57.2 °F - 48.2 °F 72% 29.93 in 10.0 mi South 13.8 mph - N/A   Clear
11:35 PM 57.2 °F - 48.2 °F 72% 29.92 in 10.0 mi South 12.7 mph - N/A   Scattered Clouds
11:55 PM 57.2 °F - 48.2 °F 72% 29.92 in 10.0 mi South 12.7 mph - N/A   Overcast